GSAT0202 (GALILEO 6)

Last updated on Wed Sep 17 2025 00:02:34 GMT+0000 (Coordinated Universal Time)

1 40129U 14050B 25259.32927827 -.00000008 00000+0 00000+0 0 9996 2 40129 49.1897 283.7040 1640480 169.7049 194.1377 1.85520158 75402
UTC large
Height (km)
Speed (km/s)
/
Latitude / Longitude
Inclination (degrees)
Orbital Period (minutes)
Azimuth
Elevation
Range (km)
Doppler Factor

Next 0 passes for location: London (51.5072 / 0.1276)

Sorry there are no passes over London.